Wind_Speed
9 9 10 10 11 10 9 9 9 10 10 11 12 13 15 17 18 20 21 21 21 21 21 21 20 20 20 21 23 24 23 24 28 30 33 34 34 35 33 32 34 34 36 36 32 28 26 24 27 32 32 29 29 31 31 30 29 30 31 30 29 31 30 32 35 35 33 31 29 25 20 19 23 25 23 22 23 24 26 27 23 21 23 24 25 26 24
9 10 10 10 9 8 7 8 8 8 9 10 11 13 15 16 18 20 20 21 23 23 22 22 21 21 22 23 24 25 25 26 27 28 31 32 32 33 33 33 32 30 34 39 33 27 26 24 23 27 31 31 30 30 30 28 30 34 33 30 31 33 32 30 29 29 30 31 31 30 28 28 29 29 28 26 22 21 24 26 27 27 27 24 24 26 24
9 9 9 7 6 6 6 7 7 8 9 10 11 13 15 16 19 19 20 23 24 22 20 20 21 23 25 26 26 25 24 25 26 26 28 30 33 35 33 34 32 29 35 41 37 32 30 24 20 21 24 27 29 32 33 31 33 38 36 32 29 30 33 33 29 27 28 29 30 31 31 30 31 31 31 29 26 26 27 27 29 32 31 28 27 27 26
9 8 6 5 4 5 5 6 6 7 8 9 11 13 15 17 19 20 22 23 20 15 14 16 17 19 22 26 28 27 25 25 26 26 25 28 33 35 33 33 34 33 36 42 42 40 37 30 24 21 22 23 22 26 31 31 31 33 35 36 31 26 28 31 30 30 30 29 28 29 30 30 30 31 31 29 29 30 31 33 34 34 34 32 32 32 31
7 5 4 3 3 4 4 5 6 7 8 10 12 13 15 18 19 22 24 19 11 10 12 12 12 12 14 19 23 25 25 26 26 25 24 25 30 34 33 33 33 32 32 37 42 42 40 38 31 25 26 26 21 21 26 27 27 26 27 31 32 29 29 30 30 30 31 31 29 26 28 30 30 29 29 30 31 31 32 34 34 33 33 34 34 34 32
4 3 3 3 3 3 4 5 5 7 9 11 13 14 16 19 20 23 23 14 6 8 11 11 12 10 8 9 14 18 22 25 27 27 26 25 27 32 34 33 32 31 29 31 36 39 40 39 35 31 30 30 26 23 23 24 25 24 23 25 28 30 31 32 31 30 33 35 33 29 29 30 31 29 29 32 33 32 32 32 32 31 32 34 35 34 32
3 2 2 2 3 3 3 4 5 7 9 11 13 14 16 18 19 22 22 11 5 8 12 12 12 9 5 4 7 12 17 21 24 26 25 24 25 28 30 30 31 32 30 29 33 38 40 40 40 39 37 34 31 28 24 21 21 23 24 23 24 26 28 29 29 30 33 36 36 35 34 34 33 30 29 31 33 33 32 30 31 34 34 33 34 34 32
2 2 2 2 2 2 3 5 6 8 10 11 13 14 16 17 19 21 21 13 6 8 11 11 10 7 5 5 6 11 15 17 19 21 21 23 25 25 26 28 29 30 31 32 33 35 37 40 43 44 39 35 33 32 30 24 17 18 23 24 22 23 25 26 25 26 28 30 32 33 35 36 37 35 33 33 34 35 35 31 29 31 34 34 35 34 33
3 2 1 1 1 2 3 5 7 9 10 11 12 13 15 17 18 20 20 16 9 6 7 8 8 8 6 5 6 9 13 16 16 16 18 22 25 25 27 28 27 29 32 32 31 30 31 36 41 41 39 37 34 32 33 30 20 15 19 22 23 24 24 25 25 25 24 24 24 26 28 31 33 34 35 35 36 39 41 37 33 31 32 35 36 35 33
3 2 2 1 1 2 3 6 7 9 9 10 11 13 14 16 17 18 19 18 13 7 5 6 9 9 7 5 6 7 9 12 14 13 15 19 22 25 27 27 27 28 28 26 28 28 28 33 36 37 37 39 37 33 32 33 29 24 21 21 21 22 23 24 24 24 23 22 21 22 23 24 25 27 29 31 34 38 40 40 38 34 31 32 35 37 35
3 3 2 2 1 2 4 6 7 8 9 10 11 13 14 15 16 16 17 17 16 11 6 5 7 7 6 5 5 6 6 6 8 9 11 15 17 19 22 25 27 25 20 20 25 27 26 28 31 33 34 36 37 34 30 30 32 29 26 24 23 21 20 21 21 21 20 20 20 21 21 22 22 22 24 26 29 32 35 38 38 37 34 32 32 36 37
3 3 3 2 1 3 4 6 7 8 9 10 11 12 13 14 14 15 15 16 17 16 12 8 6 6 4 5 4 5 7 6 6 7 9 11 13 14 15 19 23 24 20 19 22 24 24 24 25 28 30 32 33 33 30 29 30 29 27 26 27 25 22 21 21 20 20 21 21 22 22 22 22 22 23 24 25 26 29 32 33 34 36 36 34 35 37
4 3 3 1 2 3 5 6 7 8 9 10 11 12 13 13 13 14 15 16 16 16 15 14 12 9 7 4 4 3 3 6 7 7 8 11 13 15 15 17 21 23 21 19 20 22 23 23 23 24 25 28 30 30 29 29 29 29 27 25 26 26 26 24 23 22 22 22 22 23 22 21 21 23 24 24 25 25 26 27 27 28 31 33 35 37 40
4 4 2 1 2 4 5 6 7 8 9 10 11 12 12 12 13 13 14 15 15 15 15 15 15 14 12 9 6 5 2 2 5 6 9 11 12 13 15 17 21 23 22 21 22 23 23 23 23 24 25 25 25 26 27 28 27 27 27 27 26 27 27 26 25 25 23 22 22 23 24 23 23 25 26 25 24 24 25 25 25 26 27 28 30 32 35
5 3 2 1 2 4 5 6 7 7 8 9 10 11 12 12 13 13 14 15 15 14 14 15 14 14 15 13 11 8 5 3 1 2 5 7 9 11 12 14 16 20 22 23 22 23 23 23 23 23 24 25 25 25 26 27 27 26 27 28 28 29 29 28 27 27 27 25 24 24 24 23 22 22 23 23 25 26 27 26 26 26 26 28 28 27 27
4 3 1 1 2 3 5 5 6 7 7 8 9 10 11 12 12 13 14 14 14 14 14 14 14 14 13 14 13 12 9 6 3 2 3 4 4 6 9 11 14 15 17 20 21 21 21 22 22 22 22 23 25 26 25 26 27 27 27 29 31 32 31 31 30 30 30 28 27 26 24 24 25 24 21 22 23 26 27 27 26 26 26 29 30 28 27
4 2 1 1 2 3 4 5 6 7 7 8 9 9 10 11 12 13 13 13 13 14 14 14 13 13 13 12 12 12 11 9 7 4 2 3 3 3 4 8 12 14 15 16 18 18 19 21 22 22 23 23 25 26 25 23 24 24 22 23 28 33 34 33 33 33 31 29 28 28 27 26 28 28 26 24 21 21 23 24 25 26 28 29 30 29 28
4 2 1 1 2 3 4 5 6 7 7 8 9 10 10 11 11 12 12 12 12 13 14 14 13 13 12 11 11 11 10 10 9 8 6 4 2 2 3 4 7 10 13 14 16 17 19 20 20 21 23 24 25 27 27 24 24 25 22 18 20 26 30 32 33 34 32 30 30 31 29 29 30 29 28 28 25 23 23 24 26 29 30 30 30 30 30
4 2 2 1 2 3 4 5 6 7 8 9 9 9 10 10 11 11 11 11 12 12 12 12 12 12 11 11 11 10 10 9 9 8 8 7 5 3 2 4 6 8 10 12 13 14 15 17 19 20 21 22 24 25 26 24 24 27 29 27 25 25 26 27 30 33 33 32 32 32 32 31 31 30 29 30 29 28 28 28 29 32 32 31 33 34 33
4 3 2 2 2 3 4 5 6 7 8 8 9 9 10 10 10 11 11 11 12 12 11 11 11 11 11 10 10 10 9 8 8 7 7 7 6 6 4 2 3 6 9 11 12 13 14 15 17 17 18 19 21 20 21 22 24 25 26 29 29 27 26 26 26 28 31 31 32 34 34 33 32 32 32 32 31 30 30 31 32 33 33 33 33 33 32
5 3 2 2 2 3 5 5 6 7 8 8 9 9 10 11 11 11 12 12 11 11 10 10 10 11 10 10 9 9 8 8 7 7 6 6 6 6 5 3 1 2 5 8 10 13 15 17 17 17 18 19 20 20 20 22 24 25 24 24 26 27 27 28 27 27 28 30 31 32 34 35 33 33 34 35 35 33 32 32 33 34 34 35 34 33 33
5 4 3 2 2 3 5 5 6 7 8 8 9 9 10 10 11 11 11 12 11 11 10 10 11 11 11 10 9 9 8 7 6 6 6 5 6 5 5 5 4 3 3 5 7 9 11 14 15 17 19 21 21 22 22 22 26 28 26 24 25 26 27 29 30 30 30 31 31 31 33 34 34 33 33 34 35 35 34 33 33 33 34 35 35 34 34
6 5 3 2 3 3 4 6 6 7 8 8 9 10 10 11 11 12 12 12 13 13 13 12 12 11 10 9 9 8 7 6 6 6 5 5 5 5 5 5 4 5 5 5 6 7 8 10 11 13 16 17 19 21 21 22 26 29 28 27 26 26 28 30 31 32 33 34 34 34 34 35 36 35 34 35 35 36 35 35 36 36 36 36 36 36 36
7 5 4 3 3 3 4 6 7 7 8 9 9 10 10 11 11 12 12 13 13 13 12 12 11 10 9 9 8 8 7 6 6 6 6 5 5 4 4 5 5 5 6 6 7 8 9 9 10 12 13 14 17 19 21 22 23 23 25 28 28 27 29 31 31 32 34 35 36 37 37 38 39 40 39 39 39 39 39 39 39 39 39 39 40 40 40
7 6 5 4 4 4 4 5 6 7 8 9 10 10 10 11 11 11 12 12 11 11 11 11 11 10 10 9 8 8 7 7 6 6 6 6 5 5 5 5 5 5 6 7 7 8 9 10 11 12 13 13 15 17 18 20 21 20 22 25 25 24 27 29 29 30 32 33 34 36 38 40 42 43 43 44 43 43 43 43 43 42 42 42 42 42 42
7 6 5 5 5 5 5 5 7 7 8 9 9 10 11 11 11 12 12 12 11 11 11 12 12 11 10 9 9 8 8 7 6 6 6 6 6 6 6 6 6 6 6 7 7 8 9 10 10 11 12 13 15 16 17 19 20 21 23 24 23 24 26 27 26 27 28 29 31 33 35 37 38 39 40 42 43 45 46 47 47 47 46 46 45 45 44
7 6 6 6 6 6 6 7 7 8 9 9 10 11 12 12 12 12 12 12 12 11 11 12 12 11 11 10 10 9 8 7 7 6 6 6 6 6 6 6 6 6 7 7 8 8 9 9 10 11 12 13 14 16 17 18 20 22 23 23 23 24 25 25 25 25 25 26 27 29 30 32 34 34 35 36 38 40 42 44 46 47 48 49 49 48 48
7 7 7 7 7 7 7 8 8 9 9 10 11 11 12 12 12 13 13 13 13 12 12 12 12 11 11 10 10 9 9 8 8 7 6 6 7 7 7 7 7 7 7 8 8 8 9 9 10 11 12 13 15 16 16 18 20 22 23 23 22 23 24 24 24 24 24 24 25 27 28 28 29 29 29 30 32 33 34 35 37 40 42 44 46 47 48
7 7 8 8 8 8 8 8 9 10 10 11 11 12 13 13 13 13 13 14 14 13 13 13 12 11 10 10 10 9 9 9 9 8 7 7 7 7 8 8 7 8 8 8 9 9 9 10 11 12 13 14 15 16 16 17 20 23 23 22 22 23 24 24 23 24 24 25 26 27 27 26 26 26 26 26 26 26 26 27 28 30 33 36 38 41 43
8 8 8 9 9 9 9 9 10 10 11 11 12 12 13 14 13 13 14 14 14 14 13 13 13 12 11 10 10 10 10 10 9 9 8 8 7 8 8 8 8 8 8 9 10 10 11 11 12 13 13 14 15 16 15 17 21 23 20 20 21 22 23 23 24 24 25 25 26 26 26 25 26 26 26 25 25 24 25 24 24 25 27 29 30 33 35
9 9 9 10 10 10 10 10 10 11 11 12 12 13 13 14 14 14 14 15 14 14 14 13 13 13 12 11 10 10 10 9 9 9 9 8 8 8 8 9 9 9 9 10 10 11 12 12 12 13 14 14 16 17 16 17 21 22 18 17 20 21 21 22 23 23 24 25 25 26 25 25 26 26 26 25 24 25 25 24 24 24 25 26 26 27 29
10 10 10 11 11 11 11 11 11 11 12 13 13 14 14 14 14 14 14 15 15 14 14 14 13 12 12 11 10 10 10 10 9 9 9 8 8 8 8 9 9 9 10 10 11 12 13 13 13 14 15 15 16 17 17 18 21 21 18 18 20 21 20 21 22 23 24 25 25 25 26 25 25 26 26 25 25 25 24 24 24 24 25 26 26 26 27
10 10 11 11 11 11 11 11 11 12 12 13 13 14 15 15 15 14 15 15 15 15 14 14 13 12 12 11 10 10 10 10 9 9 9 8 8 8 9 9 10 10 10 11 11 12 13 14 14 14 15 15 16 17 18 19 20 20 19 19 20 20 20 21 22 23 24 24 24 26 26 25 25 25 26 26 26 25 24 24 25 24 24 25 26 26 26
11 11 11 12 11 11 11 12 12 12 12 13 13 14 15 15 14 15 15 15 15 14 14 14 13 12 11 11 11 10 10 10 9 9 9 8 8 8 9 9 10 10 10 11 12 13 14 15 15 15 15 16 17 18 19 19 19 19 20 21 20 19 20 21 21 22 24 24 24 25 26 25 25 25 25 26 26 25 24 25 25 24 24 25 25 25 25
11 11 11 11 12 12 12 12 12 12 13 13 14 14 15 15 14 15 15 15 15 14 14 14 13 12 11 11 11 11 10 10 10 9 8 8 9 9 9 9 10 10 10 11 12 13 14 15 17 17 16 16 18 18 19 20 20 19 20 22 21 20 20 21 22 23 23 23 23 24 24 24 24 24 25 25 25 25 25 25 25 24 24 24 24 24 24
11 11 11 11 12 12 12 12 12 13 13 13 14 15 15 14 14 15 15 15 15 14 14 13 13 12 12 12 11 11 10 10 10 10 9 9 9 9 9 10 10 10 10 11 12 13 14 15 17 18 18 18 19 18 18 20 21 21 21 22 22 21 21 22 23 23 23 23 23 22 22 23 23 24 24 24 24 24 24 25 25 24 24 24 24 24 23
11 11 11 11 12 12 12 12 12 13 13 14 14 15 15 14 14 14 14 14 14 14 13 13 13 13 13 12 12 11 11 10 10 10 9 8 8 9 10 10 11 11 10 11 12 13 13 15 17 18 19 21 21 20 19 21 22 22 22 22 23 23 22 23 23 23 23 23 23 22 22 22 23 23 23 23 23 24 23 24 24 24 24 24 24 23 24
11 11 11 12 12 12 12 12 12 13 13 14 14 15 15 14 14 14 14 15 14 13 13 12 12 13 13 13 12 11 11 10 10 10 10 9 9 9 10 10 11 11 11 11 13 14 15 15 17 18 20 23 23 21 20 22 24 24 23 23 24 24 24 24 23 23 23 23 23 22 22 22 22 22 22 22 22 22 22 23 23 23 23 23 23 23 23
12 12 12 12 12 12 12 12 12 13 14 14 15 15 15 14 14 14 14 15 14 13 12 12 12 12 13 12 12 11 11 10 10 10 10 10 9 10 10 10 11 12 12 12 13 16 17 18 19 20 23 25 25 23 21 23 25 25 24 24 24 25 25 25 24 23 23 23 23 22 22 22 22 21 21 21 21 21 21 21 22 22 22 23 23 23 23
13 13 13 13 13 12 12 12 13 13 14 14 15 15 15 14 14 14 14 14 14 13 12 12 12 12 13 12 12 11 10 10 10 9 10 10 10 10 10 10 11 13 14 13 15 17 18 20 21 23 25 27 27 25 24 25 26 26 25 24 25 25 25 26 25 24 23 23 23 22 22 22 22 21 21 21 21 20 20 21 21 22 22 22 22 22 22
14 14 13 13 13 12 12 12 13 14 14 15 15 15 15 14 14 15 15 14 13 13 12 13 13 13 12 12 11 11 10 10 10 10 10 10 10 11 11 11 12 14 15 16 17 19 21 22 23 25 27 30 29 27 27 28 28 27 26 25 24 25 25 25 25 24 24 23 23 22 22 21 21 21 20 20 20 20 19 20 20 21 21 21 22 22 22
15 14 14 13 13 13 12 13 13 14 14 15 15 15 14 14 14 15 15 14 14 13 13 13 14 14 13 12 11 11 10 10 10 10 10 10 11 11 12 13 14 16 17 19 20 22 23 25 26 28 30 32 32 30 30 30 29 28 27 25 24 24 24 24 24 24 24 24 23 23 22 21 21 20 20 20 20 19 19 19 19 19 19 20 20 20 20
15 14 14 14 13 13 13 13 13 14 14 15 15 15 14 14 15 15 15 15 14 14 13 13 13 14 13 11 10 10 10 10 10 10 9 10 11 12 13 14 16 17 19 21 22 24 26 28 29 32 34 35 34 32 32 31 30 28 27 25 24 23 23 23 23 23 24 24 23 23 22 21 21 20 20 20 19 19 18 19 19 18 18 18 19 19 19
15 14 14 14 13 13 13 13 13 14 15 15 15 15 14 15 15 16 16 15 14 14 14 14 14 13 13 12 11 11 10 10 10 10 11 11 12 13 14 15 17 19 21 22 24 27 29 31 34 36 37 37 36 34 32 31 29 27 26 25 24 22 22 22 22 22 23 23 23 23 22 21 20 20 19 19 19 19 19 18 18 18 18 18 18 18 18
15 14 14 14 13 13 13 13 13 14 15 16 16 15 15 15 16 16 16 15 15 14 13 14 14 13 12 12 12 12 11 10 10 11 12 13 13 14 15 16 18 21 23 25 28 30 32 35 38 39 37 36 34 32 31 29 27 25 24 23 22 21 21 21 21 22 22 22 22 22 22 21 20 20 19 19 19 18 18 18 18 18 18 17 17 17 16
15 14 14 14 13 13 14 14 14 14 15 16 16 16 15 15 16 17 16 15 15 14 13 14 14 14 12 12 12 12 13 12 12 12 12 13 13 14 16 18 21 24 26 29 31 33 35 37 39 38 34 32 31 29 28 27 25 23 22 21 21 20 20 20 21 21 21 21 21 21 21 21 20 20 20 19 19 18 18 17 18 18 17 17 17 16 16
15 14 15 14 14 14 14 14 14 15 16 16 17 17 16 16 17 17 17 16 15 15 14 14 14 14 14 13 12 11 12 13 13 13 14 14 14 15 17 20 23 26 29 32 34 36 37 39 38 34 31 30 29 28 26 25 23 21 21 20 19 19 18 18 18 19 19 19 19 19 20 20 20 20 20 20 19 18 17 17 17 17 17 17 16 16 16
15 15 15 15 15 15 15 15 15 15 16 16 16 16 17 17 17 17 17 16 16 15 15 15 14 14 14 14 14 12 12 13 13 13 14 15 15 17 20 22 24 28 32 35 37 38 39 39 36 32 29 27 27 25 24 23 21 20 20 19 18 17 16 16 17 17 16 16 18 18 19 20 20 20 19 20 19 19 18 17 17 17 16 16 16 16 16
15 16 15 15 15 15 15 16 16 15 16 16 17 17 17 18 18 17 16 16 16 15 15 15 15 14 13 14 14 14 14 14 14 14 15 16 17 19 22 24 26 29 33 37 39 39 39 37 34 30 27 26 25 24 23 21 19 18 18 19 18 17 15 15 16 15 14 14 15 16 17 19 20 21 20 20 20 19 18 18 17 17 16 16 16 16 16
16 16 16 16 16 16 16 16 17 16 15 16 17 17 17 17 18 18 17 16 16 16 16 16 16 15 14 14 14 14 14 15 15 15 16 17 18 21 23 26 28 32 35 38 39 39 37 34 32 29 27 26 25 24 22 20 19 18 18 18 18 18 16 15 14 14 14 15 15 17 18 19 21 22 21 20 20 20 20 19 18 18 17 16 16 16 16
16 16 16 16 17 17 16 17 18 18 16 15 16 17 18 17 17 18 18 17 16 16 16 16 16 16 16 15 15 15 15 16 17 17 17 18 20 23 25 28 31 33 36 37 38 37 36 33 30 28 27 27 25 23 22 20 19 18 17 18 18 18 17 16 14 14 15 16 18 20 21 22 22 22 22 21 21 22 22 21 20 19 18 17 16 17 17
16 16 16 17 17 17 17 17 17 17 17 17 16 17 17 18 17 16 17 17 17 16 16 17 17 17 16 16 16 16 16 17 17 17 18 19 22 24 26 29 32 34 36 36 37 36 34 31 28 27 26 25 25 23 21 20 19 18 17 18 18 18 18 18 18 17 17 17 18 19 20 21 21 22 22 22 22 22 22 21 20 19 18 17 17 16 17
Wind_Direction
270 279 287 293 296 299 305 309 311 311 310 311 312 314 316 315 312 311 308 307 306 301 296 290 283 275 266 260 256 253 252 251 246 236 232 232 232 236 236 231 234 232 225 226 222 215 224 234 234 234 234 235 232 227 226 223 224 225 210 197 209 222 223 223 223 226 227 222 219 215 206 208 216 216 217 225 231 233 235 236 235 235 235 231 231 237 240
277 285 290 294 298 304 311 312 313 314 316 319 320 322 323 321 319 317 312 312 312 306 297 287 277 269 261 255 250 248 249 252 249 239 235 234 231 233 234 230 232 233 227 227 224 218 221 225 230 233 233 236 235 228 226 224 225 226 216 204 207 214 218 221 221 222 223 223 222 215 206 208 212 212 213 216 221 227 231 234 234 234 234 229 227 235 242
282 286 290 296 302 308 312 312 314 320 324 327 329 329 329 327 325 324 320 318 315 307 297 288 276 266 259 253 247 244 247 251 248 239 236 234 229 228 229 227 227 227 224 223 223 222 222 221 227 233 233 235 234 230 229 230 232 231 223 218 218 216 219 221 221 225 224 220 219 217 218 221 218 214 215 215 219 224 226 229 232 232 233 229 226 233 239
281 284 290 297 306 309 311 313 321 329 332 335 338 337 336 334 332 331 328 325 321 317 312 304 290 273 260 251 243 239 242 246 243 238 236 234 228 226 227 227 227 229 226 223 223 225 224 223 227 230 234 236 231 228 228 227 232 235 228 225 227 224 223 224 226 230 230 227 227 225 225 228 226 221 216 214 218 225 228 232 235 234 234 232 231 233 236
274 280 288 298 308 307 310 321 330 339 343 345 345 343 340 339 337 337 336 332 332 337 332 325 317 297 269 251 238 234 240 244 242 238 237 236 230 225 225 227 229 233 233 227 226 226 225 227 231 233 239 243 238 236 238 235 235 241 235 226 225 226 228 228 229 232 233 232 233 232 230 232 234 230 223 220 223 226 229 234 237 237 235 234 235 237 236
259 273 283 296 309 309 320 335 343 349 351 349 348 347 345 344 343 344 343 338 326 336 337 333 331 322 295 259 235 228 235 240 239 238 236 236 233 226 224 225 226 230 232 230 228 228 227 228 231 235 239 241 239 240 246 245 240 241 240 232 227 228 232 233 233 235 237 238 240 240 238 239 238 233 226 227 231 231 230 232 236 236 234 233 236 240 240
231 252 274 292 310 321 339 352 355 355 352 350 350 350 349 348 348 349 350 343 300 313 325 328 327 318 298 268 234 226 231 234 235 237 236 232 229 226 222 223 225 225 227 228 226 226 227 227 227 230 234 237 238 236 240 247 246 241 240 240 236 233 234 236 237 238 239 241 243 243 243 243 241 237 233 236 239 238 236 236 235 234 234 236 239 241 241
198 222 255 284 313 340 358 1 359 357 353 352 353 352 352 353 352 354 357 354 323 313 320 324 331 329 304 277 244 228 230 235 236 237 237 232 227 223 218 220 222 222 225 227 224 222 224 226 225 226 230 235 237 237 240 245 249 245 241 240 241 240 238 237 237 239 241 243 245 245 245 245 245 244 244 245 245 243 241 242 242 238 235 236 240 243 242
182 206 230 250 341 7 12 2 358 357 356 356 356 354 355 358 356 357 3 5 357 341 331 332 344 348 330 287 255 238 237 243 245 239 234 232 230 224 217 218 220 220 224 227 225 224 225 225 226 227 228 233 237 238 237 238 243 249 244 239 241 244 242 241 241 242 243 246 248 248 247 246 246 246 246 245 244 244 245 247 249 247 242 238 239 243 245
181 192 189 159 86 30 10 1 357 358 358 358 359 360 0 1 0 360 6 12 13 2 332 330 341 346 341 306 265 250 246 247 248 244 235 234 233 225 218 221 221 219 225 227 223 224 226 224 226 227 227 230 234 236 235 237 244 249 244 240 242 241 238 238 241 243 244 247 251 251 251 249 246 243 242 241 241 243 245 247 247 247 247 245 241 241 244
181 176 161 143 96 28 3 360 358 357 0 1 2 5 5 3 2 3 7 14 21 21 6 331 323 331 349 344 291 255 247 242 237 235 228 224 224 220 219 224 222 218 226 228 221 222 225 225 225 228 228 229 233 236 236 237 241 244 244 242 241 239 239 240 243 244 243 244 248 250 251 252 250 247 244 242 242 242 243 243 242 243 245 247 246 243 242
175 163 149 139 75 20 3 1 1 358 0 3 4 7 9 5 3 6 9 14 20 27 29 19 346 324 341 6 336 272 257 241 219 218 217 207 201 202 210 218 217 218 224 224 217 217 221 222 224 227 229 231 234 236 238 238 238 242 247 247 244 245 250 251 250 248 246 246 249 252 254 253 252 251 250 246 244 244 244 243 243 242 241 241 243 243 243
167 155 145 126 42 16 9 5 2 360 0 3 6 8 9 7 5 8 14 16 17 22 29 33 28 13 0 5 15 348 274 240 230 224 211 199 194 197 204 207 207 212 218 216 211 212 215 219 222 224 227 231 234 237 240 240 241 243 246 249 249 251 255 255 255 255 252 247 245 247 251 251 252 256 255 249 244 244 247 247 246 246 244 241 241 244 246
161 151 144 106 28 14 12 7 1 2 3 3 8 10 8 8 8 9 16 18 16 17 24 29 34 32 25 21 25 34 64 200 236 236 217 207 203 202 205 205 204 207 211 210 207 209 214 218 221 223 226 230 232 235 238 240 242 243 245 249 253 256 257 258 256 253 248 243 243 247 251 254 258 258 253 246 242 244 248 250 248 248 249 247 245 245 246
160 151 154 78 21 11 10 7 2 4 4 5 10 11 9 10 11 12 17 18 14 15 21 24 28 32 32 31 32 37 53 93 153 211 210 208 208 207 207 206 204 205 207 208 206 208 213 218 221 223 228 231 232 234 237 239 241 244 245 246 251 254 255 254 255 253 248 248 252 255 254 253 250 246 246 251 253 252 251 251 251 251 251 251 249 247 248
166 162 176 1 13 11 8 7 5 3 3 7 12 11 11 13 13 15 18 17 12 13 17 20 23 27 30 31 34 37 41 49 76 119 156 170 178 193 206 211 211 209 208 208 208 210 214 219 222 224 227 230 232 234 237 238 238 243 248 248 248 252 252 249 250 252 252 252 253 252 250 248 243 241 249 260 258 250 247 248 250 250 249 250 250 249 250
181 184 221 342 3 10 9 4 3 1 1 5 9 9 11 13 14 17 19 14 12 14 15 15 17 21 25 28 31 34 38 39 45 62 107 153 158 163 188 207 211 208 208 209 211 212 216 219 222 225 228 230 233 234 237 239 236 238 249 251 245 247 249 248 248 250 251 251 249 246 244 246 249 250 251 252 250 244 242 244 247 249 249 249 251 250 251
195 208 249 331 356 7 8 1 359 1 0 3 7 7 9 12 13 16 18 15 14 16 15 13 14 15 17 21 25 28 32 34 35 37 44 64 111 155 174 186 190 194 202 210 213 214 217 219 221 227 232 234 236 238 241 244 240 235 238 240 235 239 246 247 246 247 248 249 250 248 243 245 252 255 252 249 249 249 245 243 245 247 250 252 254 254 255
207 219 253 312 348 1 3 359 359 0 1 3 5 4 6 10 12 14 15 15 17 17 14 12 12 13 13 15 19 21 24 28 29 26 29 39 51 64 127 176 184 192 204 210 210 211 217 221 223 229 235 236 237 242 245 248 245 240 240 244 245 248 254 253 248 247 248 247 249 251 249 247 252 256 255 254 253 252 250 249 248 249 252 254 257 259 260
214 223 250 296 338 354 356 358 1 2 2 3 3 4 7 8 9 11 13 16 17 14 12 13 12 13 14 13 14 15 15 19 23 21 20 21 23 26 39 106 174 200 211 216 218 217 221 226 225 228 237 239 237 240 246 249 248 246 247 252 253 254 257 256 252 250 250 248 249 250 250 249 251 255 256 257 257 257 256 254 254 255 256 255 256 256 258
215 219 241 288 329 346 349 353 360 2 2 2 2 4 6 6 6 8 11 14 15 11 10 13 14 14 15 14 10 8 7 9 11 13 14 10 6 4 5 11 16 220 217 223 230 230 232 236 234 233 238 242 241 241 246 253 257 254 252 256 257 255 255 256 253 251 250 249 249 251 251 251 253 256 256 255 256 258 259 259 258 258 257 256 256 255 253
213 216 232 274 314 334 341 346 354 360 2 2 2 2 3 3 4 6 8 10 10 9 9 12 13 13 13 11 7 2 360 360 360 360 360 358 355 352 346 337 323 300 266 244 242 241 241 243 242 240 241 244 247 250 251 256 259 258 254 255 257 257 258 257 254 252 252 251 250 250 250 251 252 254 254 254 254 256 259 260 260 259 258 258 258 257 254
211 217 229 259 297 321 333 338 346 356 359 0 0 0 0 1 1 2 4 6 6 5 7 8 7 6 6 4 2 359 355 351 350 348 346 343 341 338 331 325 310 294 283 271 260 255 252 249 247 247 247 246 247 252 254 255 258 261 262 259 257 258 258 257 255 254 253 252 251 251 250 250 251 251 252 253 255 256 257 257 257 256 257 257 257 257 256
213 219 229 252 283 309 327 335 342 350 354 356 357 357 356 357 359 0 1 2 3 2 2 1 358 358 359 358 358 357 353 348 344 339 334 331 328 323 316 311 303 290 279 273 268 264 263 260 256 255 254 249 246 249 254 256 258 262 264 262 258 256 256 257 258 257 256 255 254 253 251 251 252 252 253 254 254 255 255 256 256 256 255 255 255 256 256
218 224 237 253 274 298 320 333 340 345 349 351 352 354 353 353 355 358 358 358 358 358 357 356 356 356 355 354 354 353 349 345 339 333 330 324 317 311 307 301 297 291 281 273 270 268 266 265 263 262 261 259 256 256 257 259 259 258 260 262 262 259 257 258 259 260 260 258 256 255 255 255 255 255 256 256 256 255 255 255 255 255 255 255 255 255 256
223 233 248 263 279 298 318 331 337 341 344 345 346 349 350 350 352 353 353 353 354 354 352 353 355 353 350 349 350 349 346 342 336 329 325 322 317 311 307 301 296 290 283 276 273 271 270 270 270 270 268 265 264 263 262 261 261 260 260 262 263 261 260 261 261 261 261 260 259 258 258 257 257 258 258 257 257 257 257 257 256 256 256 255 255 255 255
225 239 254 270 286 300 314 326 333 336 338 340 343 345 346 347 348 348 349 349 350 351 350 350 350 349 348 346 343 342 342 340 335 328 321 318 317 313 307 302 297 289 283 278 274 273 275 277 277 278 277 275 272 270 268 266 265 264 264 263 263 263 263 263 262 261 262 262 262 261 260 260 260 260 259 259 259 258 258 258 258 258 257 257 257 256 256
230 246 262 275 288 300 309 318 327 332 333 336 340 341 342 344 344 344 345 346 345 346 348 348 348 346 344 341 338 337 338 336 333 328 321 316 316 313 307 302 296 290 283 280 277 278 280 283 286 288 287 285 282 279 277 273 269 269 269 268 267 265 265 265 265 264 263 262 261 262 264 266 266 265 264 263 263 263 262 261 260 259 258 258 258 258 258
235 250 266 278 287 295 304 312 320 326 329 333 336 338 340 341 341 341 342 342 341 342 344 345 344 342 339 339 337 334 332 332 330 327 320 315 313 312 310 305 297 291 287 284 284 285 286 290 295 297 296 296 292 288 283 278 275 274 274 273 270 267 266 267 266 265 264 263 264 266 268 270 271 272 271 270 270 269 268 266 263 261 260 259 260 260 260
239 250 265 278 285 291 299 307 314 321 326 330 333 335 337 338 337 338 338 338 338 339 340 341 341 339 337 339 338 333 329 328 328 325 320 316 314 313 313 309 302 297 293 290 289 289 289 293 299 301 302 301 297 294 291 283 280 282 282 278 273 270 268 267 266 265 265 266 267 269 270 271 273 273 272 273 274 272 270 269 267 266 265 263 263 263 263
245 256 268 278 284 289 295 301 309 317 323 326 329 332 334 334 334 334 335 335 335 336 337 339 339 336 335 338 337 332 329 328 328 324 319 316 316 316 315 312 308 305 299 295 294 293 293 296 300 302 304 304 301 299 296 286 285 291 293 283 275 274 273 270 267 266 266 267 268 269 270 270 271 272 272 273 274 272 271 270 268 267 267 266 266 266 266
250 261 271 277 282 287 292 297 305 312 319 324 326 328 331 332 332 332 333 333 333 334 334 336 337 334 334 336 336 332 329 329 328 325 320 318 317 317 315 313 311 308 304 301 300 297 297 299 301 302 304 304 303 302 298 292 293 299 297 284 279 278 276 272 270 268 268 268 268 269 269 269 269 270 271 272 271 271 271 270 268 266 267 267 266 266 266
253 263 271 276 281 285 289 295 301 308 315 320 322 324 328 329 329 329 331 332 332 332 332 334 335 335 333 334 335 333 331 330 327 323 321 320 318 315 314 313 312 310 308 306 303 301 300 301 302 302 303 303 302 301 299 298 301 304 299 292 286 281 276 273 271 270 269 268 267 267 268 268 268 269 270 270 270 271 272 271 269 269 269 268 267 267 266
255 264 270 276 280 284 287 293 298 304 311 316 319 322 326 326 325 327 330 331 330 331 331 331 333 334 333 334 335 333 331 330 328 325 325 322 318 318 317 315 315 314 312 310 306 305 305 304 303 303 303 302 302 301 301 301 303 302 299 297 293 285 278 275 272 270 269 269 268 268 268 269 269 269 270 271 272 272 273 272 271 271 270 270 270 269 269
256 264 270 276 280 283 286 290 295 301 307 312 316 320 322 323 323 326 329 330 328 329 330 329 331 333 334 335 334 333 332 331 329 328 330 327 323 322 321 318 317 316 315 312 309 306 306 305 305 306 306 303 301 301 301 302 304 302 298 297 295 290 284 278 275 272 271 270 270 270 270 270 269 268 268 269 269 270 271 271 271 271 271 271 271 271 271
256 263 270 276 279 283 286 289 292 298 305 309 314 318 320 321 322 325 328 328 328 328 328 329 330 332 334 335 335 333 333 332 330 331 333 331 327 325 324 322 321 320 319 316 312 309 308 306 306 307 308 305 303 304 304 302 302 301 298 296 294 292 287 282 279 276 274 272 271 270 270 270 269 269 268 268 269 269 270 270 271 271 271 271 271 271 272
256 263 270 276 280 283 285 287 290 296 303 307 312 317 320 319 320 324 326 326 326 326 327 328 331 331 332 334 335 332 331 333 333 331 334 334 329 327 328 326 323 322 323 319 313 312 312 309 307 308 308 306 306 309 308 303 300 298 297 295 293 290 287 284 282 279 277 274 271 270 269 270 270 271 271 271 270 270 270 271 271 271 270 270 271 271 271
257 264 271 276 280 282 284 285 288 294 301 306 310 316 318 317 318 322 325 325 325 325 325 327 329 330 329 331 333 331 330 334 335 332 334 336 332 328 330 328 323 324 327 323 317 317 317 313 310 309 307 306 309 313 310 302 299 298 297 294 291 289 286 284 282 280 278 276 274 272 271 270 270 271 271 271 271 271 271 271 271 270 270 270 271 270 270
259 265 271 276 279 281 281 283 287 293 299 305 310 315 316 316 317 320 323 324 324 324 323 324 327 327 327 329 332 331 331 334 334 331 331 333 331 329 331 330 325 325 329 325 320 320 320 317 314 312 309 309 314 318 312 303 300 300 298 293 289 287 285 283 282 280 278 277 276 274 272 271 270 270 270 270 270 270 271 271 272 271 271 271 271 270 270
260 265 271 275 277 279 280 282 287 293 298 305 310 314 315 314 315 318 321 322 321 320 320 321 324 326 326 327 329 330 330 332 332 331 330 330 329 329 332 331 325 324 326 324 321 322 321 319 317 314 311 311 316 318 313 306 303 302 299 294 289 286 284 283 282 281 278 276 275 273 272 272 272 272 272 272 272 272 272 272 272 273 273 273 272 271 270
261 265 269 274 276 278 280 283 287 292 299 305 310 313 313 312 315 317 318 318 318 317 316 318 321 325 327 327 328 329 330 330 330 330 328 327 327 328 329 327 324 323 324 324 324 324 323 321 319 315 311 310 313 314 310 306 304 303 301 297 292 289 285 282 280 279 277 275 274 272 272 272 272 273 274 274 274 274 274 274 274 274 274 273 272 271 270
262 265 268 272 275 277 280 282 287 293 299 305 310 311 310 311 314 316 315 315 315 314 314 318 322 324 327 328 327 327 328 327 327 327 325 323 324 324 324 324 325 325 326 327 327 326 324 322 318 313 310 310 311 310 307 305 304 304 302 300 297 292 287 283 279 277 276 275 274 272 272 272 272 272 273 274 275 277 278 277 276 276 275 274 273 272 271
263 266 268 272 275 277 279 282 287 294 300 305 308 309 309 311 314 314 312 313 313 312 313 318 321 323 325 326 324 323 324 324 322 320 318 318 319 321 323 326 327 327 326 327 326 324 323 321 316 311 310 310 310 308 305 304 304 303 302 300 297 293 289 285 281 277 274 274 273 273 273 273 272 273 274 276 278 279 279 278 277 277 277 277 275 273 271
262 265 268 271 274 277 280 283 289 295 301 305 307 308 308 311 312 312 310 310 310 310 313 317 320 322 323 323 321 320 321 320 317 314 315 317 320 322 324 326 327 326 326 326 325 325 323 320 316 314 313 312 310 308 306 305 304 303 301 300 298 295 291 288 284 278 275 274 274 274 274 275 275 276 278 279 280 280 280 279 280 279 278 277 276 274 272
261 264 267 271 275 277 280 284 289 294 300 303 305 305 307 309 310 309 308 308 308 309 311 313 317 320 319 318 318 318 319 318 316 313 314 317 320 322 323 324 325 327 327 326 326 326 324 318 316 316 316 312 310 309 308 308 307 305 303 301 300 298 295 292 288 282 278 276 275 275 276 277 277 278 278 278 278 279 279 279 279 279 279 278 276 274 272
260 264 267 271 274 276 279 283 288 293 298 302 303 303 304 307 308 308 307 307 307 308 309 311 314 316 315 314 314 316 316 315 314 311 311 314 318 321 323 326 327 327 327 327 327 326 323 319 318 318 316 313 313 313 312 311 311 309 306 305 304 303 300 297 292 286 281 277 276 277 278 278 278 278 278 278 278 278 278 278 278 278 278 277 276 273 270
259 264 267 270 273 276 278 282 288 293 297 299 300 300 301 304 306 307 307 306 306 307 308 310 312 313 312 312 312 312 310 308 309 309 309 312 317 321 324 327 328 327 326 327 328 327 325 324 323 321 317 317 318 318 315 315 314 311 307 307 307 307 305 301 295 289 284 280 279 278 279 280 280 279 279 280 280 279 279 277 277 277 277 277 275 273 271
261 265 268 271 273 276 279 282 287 293 296 297 296 296 298 301 304 306 305 304 303 303 304 306 309 310 309 308 309 310 307 305 305 308 309 312 317 321 323 326 328 327 327 329 330 329 327 326 325 323 320 319 318 316 315 316 316 313 309 308 307 305 303 299 295 290 284 282 284 285 284 284 284 283 282 282 282 280 279 278 277 276 277 277 275 274 272
263 266 269 272 274 276 280 283 287 292 294 294 292 293 295 298 301 302 301 299 299 299 300 302 305 307 306 304 306 308 308 307 307 308 309 312 316 320 323 326 329 329 329 332 333 331 328 325 323 322 320 317 315 314 315 315 314 310 307 305 305 305 302 299 295 287 277 274 282 287 285 283 284 285 285 285 284 283 281 279 278 277 277 277 276 274 272
265 267 270 272 274 277 281 285 288 291 290 288 288 291 293 295 298 299 298 296 295 296 299 302 305 307 306 305 304 304 305 305 304 305 306 309 315 319 324 328 331 332 332 333 334 332 327 323 321 320 318 317 316 315 313 310 308 305 300 297 297 299 299 298 295 285 269 257 256 261 265 269 275 279 280 281 282 282 281 279 279 279 279 279 277 274 272
266 268 271 273 275 279 282 285 288 290 289 286 286 288 291 294 296 298 297 296 296 297 299 303 305 306 306 305 304 303 303 302 301 301 303 308 315 321 325 329 333 334 333 333 333 331 327 324 322 320 319 319 319 318 313 307 305 303 297 292 290 291 292 294 295 289 275 260 253 255 258 261 264 269 273 274 275 276 277 277 277 278 278 277 276 275 273
267 270 272 274 277 281 283 284 286 288 289 287 287 287 289 292 295 296 295 295 296 297 298 301 303 304 303 302 300 299 299 297 296 298 304 310 317 323 327 331 334 335 335 335 334 331 327 325 325 324 321 320 322 322 317 310 306 302 297 293 290 287 287 289 291 288 283 275 268 266 265 263 261 263 267 270 270 271 274 275 275 275 274 275 275 273 272
Height
5636 5636 5636 5636 5636 5636 5635 5635 5634 5634 5633 5633 5632 5631 5629 5628 5626 5625 5624 5623 5622 5620 5619 5618 5617 5617 5617 5617 5617 5617 5618 5619 5620 5622 5623 5625 5627 5628 5630 5634 5636 5638 5641 5642 5644 5646 5647 5648 5648 5649 5652 5652 5652 5655 5658 5660 5662 5664 5665 5665 5666 5669 5672 5674 5676 5678 5680 5682 5683 5684 5687 5689 5691 5693 5695 5695 5696 5698 5698 5699 5701 5701 5702 5704 5705 5703 5704
5635 5635 5635 5635 5634 5634 5634 5633 5633 5633 5632 5631 5630 5629 5628 5626 5624 5623 5621 5620 5618 5616 5614 5613 5612 5612 5612 5612 5612 5613 5613 5614 5615 5617 5619 5621 5623 5624 5626 5629 5631 5634 5637 5639 5642 5644 5644 5645 5645 5646 5647 5648 5650 5652 5655 5658 5659 5660 5662 5662 5663 5666 5668 5670 5673 5674 5676 5678 5680 5681 5682 5682 5685 5688 5690 5692 5694 5694 5694 5696 5697 5697 5698 5700 5701 5700 5700
5634 5634 5633 5633 5633 5633 5633 5632 5632 5632 5631 5630 5629 5627 5626 5624 5622 5621 5619 5617 5614 5612 5610 5608 5607 5607 5607 5607 5608 5609 5610 5611 5612 5613 5614 5616 5617 5618 5621 5624 5626 5627 5630 5633 5637 5639 5641 5643 5644 5643 5644 5646 5648 5649 5652 5655 5655 5656 5660 5661 5662 5664 5666 5667 5670 5671 5671 5674 5675 5677 5678 5680 5682 5683 5685 5688 5690 5691 5691 5692 5692 5693 5695 5696 5697 5696 5697
5632 5632 5632 5632 5632 5632 5632 5631 5631 5630 5629 5628 5627 5626 5625 5623 5621 5618 5616 5614 5611 5609 5607 5605 5603 5602 5601 5601 5603 5605 5607 5608 5608 5609 5611 5612 5613 5615 5618 5621 5622 5623 5625 5628 5631 5634 5638 5640 5641 5642 5642 5642 5644 5647 5649 5652 5653 5654 5658 5659 5660 5663 5664 5665 5667 5668 5669 5671 5672 5674 5676 5677 5678 5680 5682 5683 5684 5686 5687 5687 5688 5690 5691 5692 5693 5693 5693
5631 5631 5631 5631 5631 5631 5631 5630 5630 5629 5628 5627 5626 5625 5623 5621 5619 5616 5614 5611 5609 5607 5605 5603 5600 5598 5597 5596 5598 5601 5603 5604 5604 5606 5607 5608 5610 5612 5614 5617 5619 5621 5624 5626 5628 5631 5634 5637 5639 5641 5640 5639 5642 5645 5646 5649 5651 5652 5654 5656 5658 5660 5661 5662 5665 5665 5666 5668 5669 5671 5673 5674 5675 5678 5680 5680 5680 5681 5683 5683 5685 5687 5687 5687 5689 5690 5690
5630 5630 5630 5630 5630 5630 5630 5629 5629 5628 5627 5626 5625 5623 5621 5619 5617 5615 5611 5609 5607 5606 5604 5602 5600 5597 5595 5595 5595 5597 5599 5600 5601 5602 5604 5605 5607 5608 5610 5613 5616 5619 5621 5623 5625 5627 5631 5634 5636 5637 5637 5638 5641 5644 5645 5646 5648 5650 5651 5653 5655 5657 5658 5660 5662 5664 5664 5664 5666 5668 5670 5671 5673 5674 5676 5677 5677 5678 5678 5680 5681 5682 5682 5683 5684 5685 5686
5629 5629 5629 5629 5629 5629 5629 5628 5628 5627 5626 5625 5624 5622 5620 5618 5616 5613 5610 5607 5606 5604 5603 5601 5599 5597 5595 5595 5595 5595 5596 5597 5598 5599 5601 5603 5604 5605 5608 5611 5613 5615 5617 5618 5620 5622 5625 5629 5630 5632 5634 5636 5639 5641 5643 5644 5645 5647 5649 5651 5653 5654 5655 5657 5659 5661 5661 5661 5663 5665 5666 5668 5670 5670 5672 5674 5674 5675 5676 5677 5678 5678 5679 5680 5680 5681 5683
5628 5629 5629 5629 5629 5628 5628 5627 5627 5626 5625 5624 5623 5621 5619 5617 5614 5612 5609 5606 5605 5603 5602 5601 5599 5597 5596 5595 5594 5594 5595 5595 5596 5597 5598 5599 5600 5602 5605 5607 5609 5611 5612 5613 5615 5618 5621 5624 5626 5629 5633 5634 5636 5638 5641 5642 5643 5644 5646 5648 5649 5651 5653 5654 5656 5657 5658 5658 5659 5661 5662 5663 5665 5667 5668 5670 5671 5672 5673 5674 5674 5675 5676 5677 5677 5678 5680
5628 5628 5628 5628 5628 5628 5627 5627 5626 5625 5624 5623 5622 5620 5618 5616 5614 5611 5608 5606 5604 5602 5601 5600 5599 5597 5596 5595 5594 5594 5594 5594 5594 5595 5596 5597 5598 5600 5602 5603 5605 5607 5608 5611 5614 5617 5620 5622 5624 5627 5631 5633 5634 5636 5638 5640 5641 5642 5643 5644 5646 5648 5649 5651 5652 5653 5655 5656 5656 5657 5658 5659 5660 5662 5664 5665 5667 5668 5669 5670 5671 5671 5672 5673 5673 5674 5676
5628 5628 5628 5628 5627 5627 5627 5626 5625 5625 5624 5623 5621 5619 5617 5615 5613 5611 5608 5606 5604 5602 5600 5599 5598 5597 5595 5594 5593 5593 5593 5592 5592 5593 5594 5595 5596 5597 5599 5601 5602 5604 5606 5609 5612 5615 5617 5619 5622 5625 5628 5630 5631 5633 5636 5638 5638 5639 5641 5642 5644 5645 5646 5647 5649 5650 5651 5653 5653 5653 5654 5655 5657 5659 5660 5661 5662 5663 5664 5666 5667 5667 5668 5669 5670 5671 5672
5627 5627 5627 5627 5627 5627 5626 5626 5625 5624 5623 5622 5620 5619 5617 5615 5613 5611 5608 5606 5604 5602 5600 5599 5598 5596 5595 5594 5593 5592 5592 5592 5592 5592 5592 5593 5594 5596 5597 5599 5601 5604 5606 5608 5610 5612 5615 5617 5619 5622 5625 5627 5629 5631 5634 5636 5636 5637 5638 5640 5642 5643 5643 5644 5645 5647 5648 5649 5650 5650 5651 5652 5654 5655 5656 5657 5658 5658 5659 5661 5662 5663 5665 5666 5666 5666 5668
5627 5627 5627 5627 5626 5626 5626 5625 5624 5623 5622 5621 5620 5618 5617 5615 5613 5611 5609 5606 5604 5602 5601 5599 5597 5596 5595 5593 5592 5591 5592 5591 5591 5591 5592 5592 5593 5594 5596 5598 5600 5603 5605 5606 5608 5611 5613 5615 5618 5620 5623 5625 5627 5629 5631 5633 5634 5635 5636 5636 5638 5639 5640 5641 5642 5643 5645 5646 5647 5647 5648 5650 5651 5651 5652 5653 5654 5655 5656 5656 5658 5658 5660 5662 5662 5661 5663
5626 5626 5626 5626 5626 5626 5625 5624 5624 5623 5622 5621 5619 5618 5616 5615 5613 5611 5609 5607 5605 5603 5601 5599 5598 5596 5595 5594 5592 5591 5591 5591 5591 5592 5592 5592 5593 5594 5596 5597 5599 5602 5604 5606 5607 5609 5612 5614 5616 5619 5621 5623 5625 5627 5629 5630 5631 5633 5634 5633 5634 5635 5637 5638 5639 5640 5642 5643 5644 5644 5645 5647 5647 5648 5649 5650 5652 5653 5653 5653 5654 5654 5656 5657 5657 5656 5658
5626 5626 5626 5626 5626 5625 5625 5624 5623 5622 5621 5620 5619 5617 5616 5615 5613 5611 5609 5607 5605 5604 5602 5600 5598 5597 5595 5594 5593 5592 5591 5591 5591 5592 5592 5593 5593 5594 5595 5596 5598 5600 5602 5604 5606 5608 5610 5612 5614 5617 5618 5620 5623 5624 5625 5627 5628 5630 5631 5631 5631 5632 5634 5635 5636 5637 5639 5640 5641 5642 5642 5643 5644 5645 5645 5646 5648 5649 5649 5649 5650 5651 5651 5652 5652 5653 5653
5625 5625 5625 5625 5625 5625 5624 5624 5623 5622 5621 5620 5619 5617 5616 5615 5613 5611 5609 5607 5606 5604 5602 5601 5599 5598 5596 5594 5593 5593 5592 5592 5592 5592 5592 5593 5593 5594 5595 5596 5598 5599 5601 5602 5604 5606 5608 5610 5612 5614 5616 5618 5619 5620 5621 5623 5625 5626 5628 5629 5629 5629 5630 5632 5633 5634 5636 5637 5637 5638 5639 5640 5641 5642 5643 5643 5644 5645 5645 5645 5647 5647 5647 5647 5649 5651 5651
5625 5625 5625 5625 5625 5624 5624 5623 5622 5622 5621 5620 5618 5617 5616 5614 5613 5611 5609 5608 5606 5605 5603 5601 5600 5598 5597 5596 5595 5594 5593 5593 5593 5592 5593 5593 5593 5594 5595 5596 5597 5598 5600 5601 5603 5605 5607 5609 5611 5612 5614 5615 5616 5617 5618 5620 5622 5623 5624 5625 5626 5626 5627 5628 5630 5631 5632 5633 5634 5634 5635 5637 5638 5639 5640 5640 5640 5640 5641 5641 5643 5644 5644 5643 5645 5648 5648
5624 5624 5624 5624 5624 5624 5623 5623 5622 5621 5620 5619 5618 5617 5616 5614 5613 5611 5609 5608 5607 5605 5603 5602 5601 5599 5598 5597 5596 5595 5594 5594 5593 5593 5593 5593 5593 5594 5594 5595 5596 5597 5599 5600 5602 5604 5605 5607 5609 5611 5612 5612 5613 5614 5616 5617 5619 5621 5621 5621 5622 5622 5623 5624 5626 5628 5628 5629 5629 5630 5631 5634 5634 5635 5637 5637 5636 5637 5637 5638 5639 5639 5639 5639 5641 5643 5645
5623 5624 5624 5624 5624 5623 5623 5622 5622 5621 5620 5619 5618 5617 5616 5614 5613 5611 5610 5609 5607 5605 5604 5602 5601 5600 5599 5598 5597 5596 5595 5595 5594 5594 5594 5594 5594 5594 5594 5595 5595 5597 5598 5599 5601 5603 5604 5606 5607 5609 5610 5610 5611 5612 5613 5615 5616 5617 5618 5618 5618 5618 5619 5621 5622 5623 5624 5625 5625 5625 5628 5630 5630 5631 5632 5632 5633 5634 5634 5635 5635 5635 5635 5636 5636 5638 5640
5623 5623 5623 5623 5623 5623 5623 5622 5621 5620 5620 5619 5617 5616 5615 5614 5613 5612 5611 5609 5608 5606 5605 5603 5602 5601 5600 5599 5598 5597 5596 5596 5595 5595 5594 5594 5594 5595 5595 5595 5596 5597 5598 5599 5600 5602 5603 5604 5606 5607 5607 5608 5609 5610 5611 5612 5613 5614 5615 5615 5615 5615 5617 5617 5617 5618 5620 5621 5622 5622 5623 5625 5627 5628 5628 5628 5629 5630 5630 5632 5632 5631 5633 5634 5633 5634 5637
5622 5623 5623 5623 5623 5622 5622 5622 5621 5620 5619 5618 5617 5616 5615 5614 5613 5612 5611 5609 5608 5607 5605 5604 5603 5601 5600 5599 5598 5598 5597 5596 5596 5595 5595 5595 5595 5595 5595 5596 5596 5597 5598 5599 5600 5601 5602 5602 5603 5605 5606 5606 5607 5609 5609 5609 5609 5610 5612 5611 5612 5613 5613 5612 5614 5615 5616 5617 5618 5618 5619 5622 5623 5624 5624 5624 5625 5625 5626 5627 5628 5629 5631 5631 5630 5632 5634
5622 5622 5622 5622 5622 5622 5622 5621 5620 5620 5619 5618 5617 5616 5615 5614 5613 5612 5610 5609 5608 5607 5606 5604 5603 5602 5601 5600 5599 5598 5598 5597 5597 5596 5596 5596 5595 5595 5595 5596 5596 5597 5598 5598 5599 5600 5600 5601 5602 5603 5604 5604 5605 5606 5606 5606 5606 5607 5608 5609 5608 5610 5609 5609 5610 5612 5612 5612 5613 5614 5616 5618 5619 5619 5619 5619 5620 5621 5622 5623 5624 5625 5626 5626 5626 5629 5630
5621 5621 5622 5622 5621 5621 5621 5621 5620 5619 5619 5618 5617 5616 5615 5614 5612 5611 5610 5609 5608 5607 5606 5605 5603 5602 5601 5600 5599 5598 5598 5597 5597 5597 5596 5596 5596 5596 5596 5596 5596 5597 5597 5598 5598 5599 5599 5600 5601 5601 5601 5602 5603 5603 5605 5605 5603 5602 5605 5606 5606 5606 5606 5605 5606 5608 5608 5608 5609 5610 5612 5614 5614 5614 5615 5615 5615 5617 5619 5619 5620 5620 5621 5622 5623 5623 5624
5620 5621 5621 5621 5621 5621 5621 5620 5620 5619 5618 5617 5616 5615 5614 5613 5612 5611 5610 5608 5607 5606 5605 5604 5603 5602 5601 5600 5600 5599 5598 5597 5597 5597 5596 5596 5596 5596 5596 5596 5596 5596 5597 5597 5598 5598 5598 5599 5599 5600 5600 5601 5601 5601 5602 5601 5599 5600 5602 5602 5602 5603 5602 5601 5602 5603 5603 5604 5605 5606 5607 5608 5609 5610 5611 5610 5611 5613 5614 5614 5615 5616 5617 5618 5618 5618 5618
5619 5620 5620 5620 5620 5620 5620 5620 5619 5618 5618 5617 5616 5615 5614 5613 5612 5611 5609 5608 5607 5606 5605 5604 5603 5602 5601 5601 5600 5599 5598 5597 5597 5597 5596 5596 5596 5596 5596 5596 5596 5596 5596 5596 5597 5597 5597 5598 5598 5598 5598 5599 5599 5599 5599 5598 5598 5599 5598 5597 5599 5600 5598 5597 5598 5598 5598 5599 5600 5600 5601 5603 5603 5605 5606 5606 5607 5608 5609 5609 5610 5611 5613 5614 5614 5613 5614
5619 5619 5619 5620 5620 5620 5620 5619 5619 5618 5617 5616 5616 5615 5614 5613 5612 5610 5609 5608 5607 5606 5605 5604 5603 5602 5601 5600 5600 5599 5598 5597 5597 5596 5596 5596 5596 5596 5595 5595 5595 5595 5596 5596 5596 5596 5596 5596 5596 5597 5597 5597 5597 5597 5597 5596 5596 5597 5595 5594 5596 5596 5595 5594 5595 5594 5594 5595 5595 5595 5596 5597 5598 5599 5601 5601 5602 5603 5603 5603 5604 5606 5607 5608 5609 5609 5609
5618 5618 5618 5618 5619 5619 5619 5619 5618 5617 5617 5616 5615 5614 5613 5612 5611 5610 5609 5608 5607 5606 5605 5604 5603 5602 5601 5600 5599 5598 5598 5597 5597 5596 5596 5595 5595 5595 5595 5595 5595 5595 5595 5595 5595 5595 5595 5595 5595 5595 5595 5595 5595 5595 5595 5595 5594 5593 5593 5593 5593 5592 5591 5591 5591 5590 5590 5591 5591 5591 5591 5591 5592 5594 5595 5596 5595 5596 5597 5597 5598 5599 5601 5602 5602 5603 5603
5617 5617 5617 5617 5618 5618 5618 5618 5617 5617 5616 5615 5614 5613 5612 5611 5610 5609 5609 5608 5607 5606 5604 5603 5602 5601 5600 5599 5599 5598 5597 5597 5596 5596 5595 5595 5595 5594 5594 5594 5594 5594 5594 5594 5594 5594 5594 5594 5594 5594 5594 5594 5594 5593 5593 5593 5592 5590 5590 5590 5590 5589 5588 5588 5587 5587 5587 5587 5587 5587 5587 5587 5588 5589 5590 5590 5590 5590 5591 5592 5592 5593 5594 5595 5595 5596 5597
5616 5616 5616 5616 5617 5617 5616 5616 5616 5616 5615 5614 5613 5613 5612 5611 5610 5609 5608 5607 5605 5605 5604 5603 5602 5601 5600 5599 5598 5597 5596 5596 5595 5595 5595 5594 5594 5594 5593 5593 5593 5593 5593 5593 5593 5593 5593 5593 5593 5592 5592 5592 5591 5591 5591 5590 5589 5588 5587 5587 5588 5587 5585 5585 5585 5584 5584 5584 5583 5583 5583 5584 5584 5585 5585 5585 5585 5585 5586 5587 5587 5588 5588 5588 5588 5589 5590
5615 5615 5615 5615 5615 5616 5615 5615 5615 5615 5614 5613 5613 5612 5611 5610 5609 5608 5607 5606 5605 5604 5603 5602 5601 5600 5599 5598 5597 5596 5596 5595 5594 5594 5594 5594 5593 5593 5593 5592 5592 5592 5592 5592 5592 5592 5591 5591 5591 5591 5590 5590 5589 5589 5588 5587 5586 5585 5584 5584 5584 5584 5583 5582 5582 5581 5581 5581 5580 5580 5580 5581 5581 5581 5581 5581 5581 5582 5582 5582 5582 5582 5583 5583 5583 5583 5584
5614 5614 5614 5614 5614 5614 5614 5614 5614 5614 5613 5612 5612 5611 5610 5609 5608 5607 5606 5605 5604 5603 5602 5601 5600 5599 5598 5597 5597 5596 5595 5594 5594 5593 5593 5592 5592 5592 5592 5591 5591 5591 5591 5591 5591 5590 5590 5590 5589 5589 5589 5588 5587 5586 5586 5585 5583 5582 5582 5582 5581 5581 5580 5579 5579 5578 5578 5578 5577 5577 5577 5577 5577 5577 5577 5577 5578 5578 5578 5578 5579 5578 5578 5578 5579 5579 5579
5612 5613 5613 5613 5613 5613 5613 5613 5613 5612 5612 5611 5610 5610 5609 5608 5607 5606 5605 5604 5603 5602 5601 5600 5599 5598 5597 5596 5596 5595 5594 5593 5593 5592 5592 5591 5591 5591 5591 5590 5590 5590 5590 5589 5589 5589 5588 5588 5588 5587 5587 5586 5585 5584 5584 5583 5580 5579 5580 5580 5578 5578 5577 5577 5576 5576 5575 5575 5575 5574 5574 5574 5574 5573 5574 5574 5575 5574 5574 5575 5575 5575 5575 5575 5575 5575 5575
5611 5611 5612 5612 5612 5612 5612 5612 5612 5611 5611 5610 5609 5609 5608 5607 5605 5604 5603 5602 5601 5601 5600 5599 5598 5597 5596 5595 5595 5594 5593 5592 5592 5591 5591 5590 5590 5590 5589 5589 5589 5589 5588 5588 5588 5588 5587 5586 5586 5586 5585 5584 5583 5582 5581 5580 5578 5578 5578 5577 5576 5575 5575 5574 5573 5572 5572 5572 5572 5571 5571 5571 5571 5570 5571 5571 5571 5571 5571 5571 5571 5571 5571 5571 5571 5572 5572
5610 5610 5610 5610 5611 5611 5611 5611 5610 5610 5610 5609 5608 5607 5606 5605 5604 5603 5602 5601 5600 5599 5599 5598 5597 5596 5595 5594 5594 5593 5592 5591 5591 5590 5590 5589 5589 5589 5588 5588 5588 5587 5587 5587 5586 5586 5585 5585 5584 5584 5583 5582 5581 5580 5579 5577 5576 5576 5575 5574 5573 5572 5571 5571 5570 5569 5568 5568 5569 5568 5567 5568 5568 5567 5567 5567 5567 5567 5567 5567 5567 5568 5568 5567 5567 5568 5568
5608 5609 5609 5609 5609 5609 5609 5609 5609 5609 5608 5608 5607 5606 5605 5604 5603 5602 5601 5600 5599 5598 5597 5597 5596 5595 5594 5593 5592 5592 5591 5590 5590 5589 5589 5588 5588 5588 5587 5587 5586 5586 5586 5585 5585 5584 5583 5583 5582 5582 5581 5580 5579 5578 5577 5575 5574 5573 5572 5571 5570 5570 5569 5568 5567 5566 5565 5565 5565 5564 5564 5564 5564 5564 5564 5563 5563 5564 5564 5563 5563 5564 5564 5563 5563 5564 5564
5607 5607 5608 5608 5608 5608 5608 5608 5608 5607 5607 5607 5606 5605 5604 5603 5602 5601 5600 5599 5598 5597 5596 5595 5595 5594 5593 5592 5591 5591 5590 5589 5589 5588 5588 5587 5587 5586 5586 5585 5585 5584 5584 5584 5583 5582 5582 5581 5580 5579 5579 5578 5577 5576 5575 5573 5572 5571 5569 5568 5567 5566 5566 5565 5564 5563 5562 5562 5562 5561 5561 5561 5560 5560 5560 5560 5560 5560 5560 5560 5560 5560 5560 5560 5560 5560 5560
5606 5606 5606 5606 5606 5606 5607 5607 5606 5606 5606 5605 5604 5604 5602 5601 5600 5600 5599 5598 5597 5596 5595 5594 5593 5593 5592 5591 5590 5589 5589 5588 5587 5587 5586 5586 5586 5585 5585 5584 5584 5583 5582 5582 5581 5580 5580 5579 5578 5577 5576 5575 5574 5573 5572 5571 5569 5568 5566 5565 5564 5563 5562 5561 5560 5559 5559 5559 5558 5558 5558 5557 5557 5556 5557 5557 5556 5556 5556 5556 5556 5556 5556 5556 5556 5556 5556
5604 5604 5605 5605 5605 5605 5605 5605 5605 5604 5604 5604 5603 5602 5601 5600 5599 5598 5597 5596 5596 5595 5594 5593 5592 5591 5590 5590 5589 5588 5588 5587 5586 5586 5585 5585 5585 5584 5584 5583 5582 5582 5581 5580 5579 5579 5578 5577 5576 5575 5573 5572 5571 5571 5570 5568 5566 5565 5563 5562 5560 5559 5558 5557 5556 5556 5555 5555 5555 5554 5554 5554 5553 5553 5553 5553 5553 5553 5553 5553 5552 5553 5553 5552 5552 5552 5552
5602 5603 5603 5603 5603 5603 5603 5603 5603 5603 5602 5602 5601 5600 5599 5598 5598 5597 5596 5595 5594 5594 5593 5592 5591 5590 5589 5588 5588 5587 5586 5586 5585 5584 5584 5584 5583 5583 5582 5582 5581 5580 5580 5579 5578 5577 5576 5575 5574 5573 5571 5569 5569 5568 5567 5565 5563 5561 5560 5559 5557 5556 5555 5554 5553 5552 5551 5551 5551 5551 5551 5550 5550 5550 5550 5550 5550 5550 5549 5549 5549 5549 5549 5549 5549 5549 5549
5601 5601 5601 5602 5602 5602 5602 5602 5601 5601 5601 5600 5599 5599 5598 5597 5596 5596 5595 5594 5593 5592 5591 5590 5590 5589 5588 5587 5587 5586 5585 5584 5584 5583 5583 5582 5582 5581 5581 5580 5579 5578 5578 5577 5576 5575 5574 5573 5572 5570 5568 5567 5566 5566 5564 5561 5559 5558 5556 5555 5553 5552 5551 5550 5549 5548 5548 5547 5547 5547 5547 5547 5547 5547 5547 5547 5547 5546 5546 5546 5546 5546 5545 5545 5545 5545 5545
5599 5599 5600 5600 5600 5600 5600 5600 5600 5599 5599 5599 5598 5597 5596 5595 5595 5594 5593 5592 5592 5591 5590 5589 5588 5588 5587 5586 5585 5585 5584 5583 5583 5582 5581 5581 5580 5580 5579 5578 5578 5577 5576 5575 5574 5573 5572 5571 5569 5568 5565 5563 5563 5562 5560 5557 5555 5554 5553 5551 5549 5548 5547 5546 5545 5545 5544 5544 5543 5543 5543 5543 5543 5543 5543 5543 5543 5543 5543 5543 5542 5542 5542 5542 5542 5542 5542
5597 5597 5598 5598 5598 5598 5598 5598 5598 5598 5597 5597 5596 5595 5594 5594 5593 5592 5592 5591 5590 5589 5588 5587 5587 5586 5586 5585 5584 5583 5583 5582 5581 5581 5580 5579 5579 5578 5577 5577 5576 5575 5574 5573 5572 5571 5570 5568 5567 5565 5562 5560 5559 5558 5556 5554 5551 5550 5548 5547 5546 5545 5544 5543 5542 5541 5540 5540 5540 5539 5539 5539 5539 5540 5540 5540 5539 5539 5539 5539 5539 5539 5539 5538 5538 5538 5538
5595 5596 5596 5596 5596 5597 5597 5597 5596 5596 5595 5595 5594 5593 5593 5592 5591 5591 5590 5589 5588 5588 5587 5586 5585 5585 5584 5583 5582 5582 5581 5580 5580 5579 5578 5578 5577 5576 5576 5575 5574 5573 5572 5571 5570 5569 5567 5566 5564 5561 5559 5557 5555 5553 5551 5549 5547 5546 5544 5543 5542 5541 5540 5539 5538 5537 5537 5536 5536 5536 5536 5536 5536 5536 5536 5536 5536 5536 5536 5536 5535 5535 5535 5535 5535 5535 5535
5593 5593 5594 5594 5595 5595 5595 5595 5594 5594 5593 5593 5592 5592 5591 5590 5590 5589 5588 5587 5587 5586 5585 5584 5584 5583 5582 5582 5581 5580 5580 5579 5578 5577 5577 5576 5576 5575 5574 5573 5572 5571 5570 5569 5568 5566 5565 5563 5560 5557 5554 5552 5551 5549 5547 5545 5543 5541 5540 5539 5538 5537 5536 5535 5534 5534 5533 5533 5532 5532 5532 5532 5533 5533 5533 5533 5532 5532 5533 5532 5532 5532 5532 5532 5531 5531 5531
5591 5592 5592 5592 5593 5593 5593 5593 5592 5592 5591 5591 5590 5590 5589 5588 5588 5587 5586 5585 5585 5584 5583 5583 5582 5581 5581 5580 5579 5579 5578 5577 5577 5576 5575 5574 5574 5573 5572 5571 5570 5569 5568 5567 5565 5563 5561 5559 5556 5553 5550 5547 5545 5544 5542 5540 5539 5537 5536 5535 5534 5533 5532 5531 5531 5530 5530 5529 5529 5529 5529 5529 5529 5529 5529 5529 5529 5529 5529 5529 5529 5529 5529 5528 5528 5528 5528
5589 5589 5590 5590 5590 5591 5591 5591 5591 5590 5589 5588 5588 5588 5587 5587 5586 5585 5584 5583 5583 5582 5582 5581 5580 5580 5579 5578 5577 5577 5576 5576 5575 5574 5573 5572 5572 5571 5570 5569 5568 5567 5565 5564 5562 5560 5558 5554 5551 5548 5546 5544 5541 5539 5537 5536 5535 5534 5532 5531 5530 5530 5529 5528 5527 5527 5526 5526 5526 5526 5526 5526 5526 5526 5526 5526 5526 5526 5526 5526 5526 5526 5526 5526 5525 5525 5525
5587 5587 5588 5588 5588 5589 5589 5589 5588 5588 5587 5586 5586 5585 5585 5585 5584 5583 5582 5581 5581 5580 5580 5579 5578 5578 5577 5576 5576 5575 5574 5573 5573 5572 5571 5571 5570 5569 5568 5567 5565 5564 5562 5561 5559 5557 5554 5550 5546 5544 5541 5539 5537 5535 5533 5532 5531 5530 5529 5528 5527 5526 5526 5525 5524 5524 5523 5523 5523 5523 5523 5522 5522 5523 5523 5523 5523 5523 5523 5523 5523 5523 5523 5523 5523 5523 5523
5585 5585 5586 5586 5586 5586 5586 5586 5586 5586 5585 5585 5584 5583 5583 5582 5582 5581 5580 5579 5579 5578 5578 5577 5577 5576 5575 5574 5574 5573 5572 5571 5571 5570 5569 5569 5568 5567 5565 5564 5562 5561 5559 5557 5556 5553 5550 5546 5543 5541 5538 5535 5533 5531 5530 5528 5527 5526 5525 5525 5524 5523 5523 5522 5521 5521 5521 5521 5520 5520 5520 5520 5519 5519 5520 5520 5520 5520 5520 5520 5520 5520 5520 5520 5520 5520 5520
5583 5583 5584 5584 5584 5584 5584 5584 5584 5584 5583 5582 5582 5581 5581 5580 5580 5579 5578 5577 5577 5576 5576 5575 5575 5574 5573 5572 5572 5571 5571 5570 5569 5568 5567 5566 5565 5564 5563 5562 5560 5558 5556 5553 5551 5548 5545 5541 5539 5537 5534 5532 5530 5529 5527 5526 5525 5524 5522 5522 5521 5521 5520 5520 5519 5519 5519 5518 5518 5518 5518 5517 5517 5517 5517 5517 5517 5517 5517 5517 5517 5517 5517 5517 5517 5517 5517
5581 5581 5582 5582 5582 5582 5582 5582 5582 5582 5581 5580 5579 5579 5579 5578 5577 5577 5576 5576 5575 5574 5574 5573 5573 5572 5572 5571 5570 5569 5568 5567 5566 5566 5565 5564 5563 5562 5560 5559 5557 5555 5552 5550 5547 5544 5540 5537 5534 5533 5531 5529 5527 5526 5524 5523 5522 5521 5520 5519 5518 5518 5518 5518 5517 5517 5517 5517 5517 5516 5516 5515 5515 5514 5514 5514 5514 5514 5514 5514 5514 5514 5514 5514 5514 5514 5515
5578 5579 5579 5579 5579 5579 5579 5579 5579 5579 5579 5578 5577 5577 5576 5576 5575 5574 5574 5574 5573 5572 5572 5571 5571 5570 5569 5569 5568 5567 5566 5565 5564 5563 5562 5561 5560 5559 5558 5556 5554 5551 5549 5546 5544 5541 5537 5534 5531 5529 5528 5526 5524 5523 5522 5521 5519 5518 5518 5517 5516 5515 5515 5515 5515 5515 5515 5515 5515 5515 5514 5514 5513 5512 5512 5512 5512 5511 5511 5511 5511 5511 5512 5512 5512 5512 5512
5576 5576 5577 5577 5577 5577 5577 5577 5576 5576 5576 5576 5575 5575 5574 5573 5573 5572 5571 5571 5571 5570 5569 5569 5568 5568 5567 5566 5565 5564 5564 5563 5562 5561 5560 5559 5558 5556 5555 5553 5551 5548 5545 5542 5539 5537 5534 5531 5529 5527 5525 5523 5522 5520 5519 5518 5517 5516 5515 5514 5513 5513 5512 5512 5512 5512 5512 5512 5513 5512 5512 5512 5511 5510 5510 5510 5509 5509 5508 5508 5508 5509 5509 5509 5509 5509 5509
5574 5574 5574 5574 5574 5574 5574 5574 5574 5573 5573 5573 5573 5572 5571 5571 5571 5570 5569 5569 5568 5568 5567 5567 5566 5565 5565 5564 5563 5562 5561 5560 5559 5558 5558 5556 5555 5554 5552 5550 5548 5545 5542 5539 5535 5532 5529 5527 5526 5524 5522 5520 5519 5518 5516 5515 5514 5513 5512 5511 5511 5510 5510 5510 5510 5509 5509 5509 5509 5509 5509 5508 5508 5508 5507 5507 5506 5506 5506 5506 5505 5505 5506 5506 5506 5507 5507